TimeSAST,TemperatureF,Dew PointF,Humidity,Sea Level PressureIn,VisibilityMPH,Wind Direction,Wind SpeedMPH,Gust SpeedMPH,PrecipitationIn,Events,Conditions,WindDirDegrees,DateUTC
12:00 AM,55.4,50.0,82,30.06,6.2,SSW,2.3,-,N/A,,Mostly Cloudy,200,2013-09-24 22:00:00
1:00 AM,51.8,48.2,88,30.04,-9999.0,NNW,3.5,-,N/A,,Clear,340,2013-09-24 23:00:00
2:00 AM,50.0,46.4,87,30.01,-9999.0,Variable,2.3,-,N/A,,Clear,0,2013-09-25 00:00:00
3:00 AM,46.4,42.8,87,29.98,-9999.0,North,3.5,-,N/A,,Clear,360,2013-09-25 01:00:00
4:00 AM,46.4,44.6,93,30.01,-9999.0,WNW,5.8,-,N/A,,Clear,300,2013-09-25 02:00:00
5:00 AM,48,45,84,30.06,12,West,6.9,,,,Mostly Cloudy,260,2013-09-25 03:00:00
5:00 AM,48.2,44.6,87,30.04,6.2,West,6.9,-,N/A,,Mostly Cloudy,260,2013-09-25 03:00:00
6:00 AM,51.8,46.4,82,30.06,6.2,NW,6.9,-,N/A,,Mostly Cloudy,320,2013-09-25 04:00:00
7:00 AM,51.8,48.2,88,30.04,6.2,SW,4.6,-,N/A,,Partly Cloudy,220,2013-09-25 05:00:00
8:00 AM,55,49,74,30.07,12,NW,5.8,,,,Scattered Clouds,310,2013-09-25 06:00:00
8:00 AM,55.4,48.2,77,30.06,6.2,NW,5.8,-,N/A,,Partly Cloudy,310,2013-09-25 06:00:00
9:00 AM,57.2,48.2,72,30.04,6.2,WSW,6.9,-,N/A,,Partly Cloudy,250,2013-09-25 07:00:00
10:00 AM,59.0,48.2,67,30.06,6.2,WSW,9.2,-,N/A,,Partly Cloudy,250,2013-09-25 08:00:00
11:00 AM,61,49,56,30.06,12,NNW,4.6,,,,Scattered Clouds,330,2013-09-25 09:00:00
11:00 AM,60.8,50.0,68,30.04,6.2,NNW,4.6,-,N/A,,Partly Cloudy,340,2013-09-25 09:00:00
12:00 PM,64.4,50.0,59,30.04,6.2,SSW,5.8,-,N/A,,Partly Cloudy,200,2013-09-25 10:00:00
1:00 PM,64.4,50.0,59,30.04,-9999.0,SSW,5.8,-,N/A,,Clear,200,2013-09-25 11:00:00
2:00 PM,64,49,49,30.04,12,South,10.4,,,,Partly Cloudy,170,2013-09-25 12:00:00
2:00 PM,64.4,50.0,59,30.04,-9999.0,South,10.4,-,N/A,,Clear,170,2013-09-25 12:00:00
3:00 PM,62.6,50.0,63,30.04,6.2,South,11.5,-,N/A,,Partly Cloudy,180,2013-09-25 13:00:00
4:00 PM,62.6,50.0,63,30.01,6.2,South,10.4,-,N/A,,Scattered Clouds,190,2013-09-25 14:00:00
5:00 PM,60,51,63,30.06,12,SSW,11.5,,,,Mostly Cloudy,210,2013-09-25 15:00:00
5:00 PM,60.8,50.0,68,30.04,6.2,SSW,11.5,-,N/A,,Mostly Cloudy,210,2013-09-25 15:00:00
6:00 PM,60.8,51.8,72,30.04,6.2,SSW,8.1,-,N/A,,Mostly Cloudy,210,2013-09-25 16:00:00
7:00 PM,59.0,51.8,77,30.06,6.2,SW,4.6,-,N/A,,Mostly Cloudy,230,2013-09-25 17:00:00
8:00 PM,59,52,70,30.09,12,WSW,3.5,,,,Mostly Cloudy,240,2013-09-25 18:00:00
8:00 PM,59.0,51.8,77,30.06,6.2,WSW,3.5,-,N/A,,Mostly Cloudy,240,2013-09-25 18:00:00
9:00 PM,59.0,51.8,77,30.09,6.2,NNW,4.6,-,N/A,,Mostly Cloudy,340,2013-09-25 19:00:00
10:00 PM,57.2,51.8,82,30.09,-9999.0,NNW,3.5,-,N/A,,Clear,340,2013-09-25 20:00:00
11:00 PM,55.4,50.0,82,30.06,-9999.0,Variable,2.3,-,N/A,,Clear,0,2013-09-25 21:00:00